Paso Robles, CA

10:03 AM PST on February 24, 2017 (GMT -0800)
Paso Robles Municipal

Weather History for KPRB - January, 2014

Change the Weather History Date:

Wednesday, January 15, 2014

  Actual Average Record
Temperature  
Mean Temperature 61 °F 47 °F  
Max Temperature 82 °F 59 °F 82 °F (2014)
Min Temperature 40 °F 35 °F 16 °F (2007)
Degree Days  
Heating Degree Days 4 18  
Month to date heating degree days 205 275  
Since 1 July heating degree days 1240 1399  
Cooling Degree Days 0 0  
Month to date cooling degree days 0 0  
Year to date cooling degree days 0 0  
Growing Degree Days 6 (Base 50)    
Moisture  
Dew Point 25 °F    
Average Humidity 43    
Maximum Humidity 78    
Minimum Humidity 7    
Precipitation  
Precipitation 0.00 in 0.10 in 1.40 in (1993)
Month to date precipitation 0.00 1.35  
Year to date precipitation 0.00 1.35  
Since 1 July precipitation 0.46  
Sea Level Pressure  
Sea Level Pressure 30.28 in    
Wind  
Wind Speed 4 mph (ESE)    
Max Wind Speed 13 mph    
Max Gust Speed -    
Visibility 10 miles    
Events      
T = Trace of Precipitation, MM = Missing Value Source: NWS Daily Summary

Daily Weather History Graph

Daily Weather History Graph

Search for Another Location

Airport or City:

Trip Planner

Search our weather history database for the weather conditions in past years. The results will help you decide how hot, cold, wet, or windy it might be!

Date:

Astronomy

Jan. 15, 2014 Rise Set
Actual Time 7:11 AM PST 5:12 PM PST
Civil Twilight 6:43 AM PST 5:40 PM PST
Nautical Twilight 6:12 AM PST 6:11 PM PST
Astronomical Twilight 5:41 AM PST 6:42 PM PST
Moon 5:12 PM PST (1/15) 6:32 AM PST (1/15)
Length of Visible Light 10h 56m
Length of Day
10h 01m
Full, 100% of the Moon is Illuminated
Jan 15
Full
Jan 15
Full
Jan 23
Last Quarter
Jan 30
New
Feb 6
First Quarter

Hourly Weather History & Observations

Time (PST) Temp. Windchill Dew Point Humidity Pressure Visibility Wind Dir Wind Speed Gust Speed Precip Events Conditions
12:53 AM 42.1 °F - 28.0 °F 58% 30.33 in 10.0 mi Calm Calm - N/A   Clear
1:53 AM 39.0 °F - 27.0 °F 62% 30.33 in 10.0 mi Calm Calm - N/A   Clear
2:53 AM 36.0 °F - 26.1 °F 67% 30.34 in 10.0 mi Calm Calm - N/A   Clear
3:53 AM 33.1 °F 30.0 °F 25.0 °F 72% 30.34 in 10.0 mi ESE 3.5 mph - N/A   Clear
4:53 AM 34.0 °F - 26.1 °F 73% 30.33 in 10.0 mi Calm Calm - N/A   Clear
5:43 AM 32.0 °F - 26.6 °F 80% 30.33 in 10.0 mi Calm Calm - N/A   Clear
5:53 AM 30.9 °F - 24.1 °F 76% 30.33 in 10.0 mi Calm Calm - N/A   Clear
6:53 AM 30.0 °F - 24.1 °F 79% 30.34 in 10.0 mi Calm Calm - N/A   Clear
7:53 AM 30.9 °F 27.5 °F 24.1 °F 76% 30.35 in 10.0 mi SSE 3.5 mph - N/A   Clear
8:53 AM 37.9 °F - 25.0 °F 60% 30.36 in 10.0 mi Calm Calm - N/A   Clear
9:53 AM 45.0 °F - 28.0 °F 52% 30.35 in 10.0 mi Calm Calm - N/A   Clear
10:53 AM 53.1 °F - 27.0 °F 37% 30.32 in 10.0 mi Calm Calm - N/A   Clear
11:53 AM 61.0 °F - 27.0 °F 27% 30.28 in 10.0 mi North - - N/A   Clear
1:53 PM 73.9 °F - 25.0 °F 16% 30.21 in 10.0 mi NW 4.6 mph - N/A   Unknown
2:53 PM 82.0 °F - 14.0 °F 8% 30.19 in 10.0 mi East 11.5 mph - N/A   Clear
3:53 PM 79.0 °F - 12.9 °F 8% 30.18 in 10.0 mi East 12.7 mph - N/A   Clear
4:53 PM 73.0 °F - 18.0 °F 12% 30.18 in 10.0 mi East 9.2 mph - N/A   Clear
5:53 PM 64.0 °F - 21.9 °F 20% 30.19 in 10.0 mi East 9.2 mph - N/A   Clear
6:53 PM 59.0 °F - 25.0 °F 27% 30.21 in 10.0 mi SSE 8.1 mph - N/A   Clear
7:53 PM 57.0 °F - 28.0 °F 33% 30.21 in 10.0 mi South 6.9 mph - N/A   Clear
8:53 PM 54.0 °F - 28.0 °F 37% 30.21 in 10.0 mi SE 8.1 mph - N/A   Clear
9:53 PM 51.1 °F - 27.0 °F 39% 30.23 in 10.0 mi ESE 6.9 mph - N/A   Clear
10:53 PM 46.9 °F - 27.0 °F 46% 30.23 in 10.0 mi Calm Calm - N/A   Clear
11:53 PM 42.1 °F 40.2 °F 24.1 °F 49% 30.23 in 10.0 mi NE 3.5 mph - N/A   Clear